When you browse on this site, cookies collect data to enhance your experience and personalize the content and advertising you see.
Visit our Privacy Policy to learn more. By continuing to use the site, you agree to this use of cookies and data.
EN

Hourly Weather Uige

Today, 11 July, Saturday

Time Temperature Precipitation Wind Pressure Humidity
00:00 +19°C° 0 mm 1 mps 691 mmHg 90%
01:00 +19°C° 0 mm 1 mps 691 mmHg 97%
02:00 +19°C° 0 mm 1 mps 691 mmHg 96%
03:00 +19°C° 0 mm 1 mps 691 mmHg 96%
04:00 +18°C° 0 mm 1 mps 690 mmHg 96%
05:00 +19°C° 0 mm 1 mps 691 mmHg 92%
06:00 +19°C° 0 mm 1 mps 691 mmHg 88%
07:00 +20°C° 0 mm 1 mps 691 mmHg 83%
08:00 +23°C° 0 mm 1 mps 692 mmHg 67%
09:00 +27°C° 0 mm 1 mps 693 mmHg 51%
10:00 +31°C° 0 mm 1 mps 694 mmHg 34%
11:00 +33°C° 0 mm 1 mps 693 mmHg 31%
12:00 +35°C° 0 mm 1 mps 692 mmHg 27%
13:00 +36°C° 0 mm 1 mps 692 mmHg 25%
14:00 +37°C° 0 mm 2 mps 691 mmHg 26%
15:00 +36°C° 0 mm 2 mps 691 mmHg 27%
16:00 +35°C° 0 mm 2 mps 690 mmHg 28%
17:00 +32°C° 0 mm 2 mps 690 mmHg 34%
18:00 +29°C° 0 mm 1 mps 690 mmHg 41%
19:00 +27°C° 0 mm 1 mps 690 mmHg 48%
20:00 +25°C° 0 mm 1 mps 690 mmHg 54%
21:00 +23°C° 0 mm 1 mps 691 mmHg 60%
22:00 +22°C° 0 mm 1 mps 691 mmHg 66%
23:00 +21°C° 0 mm 1 mps 691 mmHg 73%

Tomorrow, 12 July, Sunday

Time Temperature Precipitation Wind Pressure Humidity
00:00 +20°C° 0 mm 1 mps 691 mmHg 79%
01:00 +17°C° 0 mm 0 mps 691 mmHg 86%
02:00 +17°C° 0 mm 0 mps 691 mmHg 88%
03:00 +16°C° 0 mm 0 mps 690 mmHg 90%
04:00 +16°C° 0 mm 0 mps 690 mmHg 92%
05:00 +17°C° 0 mm 0 mps 691 mmHg 90%
06:00 +17°C° 0 mm 0 mps 691 mmHg 88%
07:00 +17°C° 0 mm 0 mps 692 mmHg 86%
08:00 +23°C° 0 mm 1 mps 692 mmHg 72%
09:00 +26°C° 0 mm 1 mps 693 mmHg 58%
10:00 +30°C° 0 mm 1 mps 694 mmHg 45%
11:00 +31°C° 0 mm 2 mps 693 mmHg 41%
12:00 +32°C° 0 mm 2 mps 693 mmHg 37%
13:00 +34°C° 0 mm 2 mps 692 mmHg 33%
14:00 +34°C° 0 mm 2 mps 691 mmHg 33%
15:00 +34°C° 0 mm 2 mps 691 mmHg 33%
16:00 +32°C° 0 mm 2 mps 690 mmHg 34%
17:00 +30°C° 0 mm 2 mps 690 mmHg 39%
18:00 +28°C° 0 mm 2 mps 691 mmHg 43%
19:00 +27°C° 0 mm 2 mps 691 mmHg 48%
20:00 +25°C° 0 mm 1 mps 691 mmHg 58%
21:00 +23°C° 0 mm 1 mps 691 mmHg 67%
22:00 +21°C° 0 mm 1 mps 692 mmHg 77%
23:00 +20°C° 0 mm 1 mps 691 mmHg 84%

Day after tomorrow, 13 July, Monday

Time Temperature Precipitation Wind Pressure Humidity
00:00 +19°C° 0 mm 1 mps 691 mmHg 91%
01:00 +16°C° 0 mm 1 mps 691 mmHg 97%
02:00 +18°C° 0 mm 1 mps 691 mmHg 95%
03:00 +18°C° 0 mm 1 mps 691 mmHg 93%
04:00 +19°C° 0 mm 1 mps 691 mmHg 90%
05:00 +19°C° 0 mm 1 mps 691 mmHg 89%
06:00 +19°C° 0 mm 1 mps 691 mmHg 88%
07:00 +19°C° 0 mm 1 mps 692 mmHg 86%
08:00 +22°C° 0 mm 1 mps 692 mmHg 74%
09:00 +25°C° 0 mm 1 mps 693 mmHg 61%
10:00 +28°C° 0 mm 1 mps 693 mmHg 48%
11:00 +30°C° 0 mm 1 mps 693 mmHg 42%
12:00 +32°C° 0 mm 1 mps 692 mmHg 36%
13:00 +35°C° 0 mm 2 mps 691 mmHg 30%
14:00 +35°C° 0 mm 2 mps 691 mmHg 30%
15:00 +34°C° 0 mm 2 mps 690 mmHg 31%
16:00 +34°C° 0 mm 2 mps 689 mmHg 31%
17:00 +30°C° 0 mm 2 mps 689 mmHg 38%
18:00 +28°C° 0 mm 1 mps 689 mmHg 46%
19:00 +25°C° 0 mm 1 mps 689 mmHg 54%
20:00 +24°C° 0 mm 1 mps 690 mmHg 61%
21:00 +22°C° 0 mm 1 mps 690 mmHg 68%
22:00 +21°C° 0 mm 1 mps 691 mmHg 75%
23:00 +19°C° 0 mm 1 mps 690 mmHg 82%

14 July, Tuesday

Time Temperature Precipitation Wind Pressure Humidity
00:00 +18°C° 0 mm 1 mps 690 mmHg 89%
01:00 +16°C° 0 mm 1 mps 690 mmHg 96%
02:00 +18°C° 0 mm 1 mps 690 mmHg 94%
03:00 +18°C° 0 mm 1 mps 690 mmHg 93%
04:00 +18°C° 0 mm 1 mps 690 mmHg 92%
05:00 +18°C° 0 mm 1 mps 690 mmHg 91%
06:00 +19°C° 0 mm 1 mps 691 mmHg 89%
07:00 +17°C° 0 mm 0 mps 691 mmHg 88%
08:00 +20°C° 0 mm 0 mps 692 mmHg 75%
09:00 +25°C° 0 mm 1 mps 692 mmHg 61%
10:00 +28°C° 0 mm 1 mps 693 mmHg 48%
11:00 +30°C° 0 mm 1 mps 692 mmHg 42%
12:00 +32°C° 0 mm 1 mps 692 mmHg 36%
13:00 +34°C° 0 mm 1 mps 691 mmHg 30%
14:00 +34°C° 0 mm 2 mps 691 mmHg 30%
15:00 +34°C° 0 mm 2 mps 690 mmHg 31%
16:00 +34°C° 0 mm 2 mps 689 mmHg 31%
17:00 +30°C° 0 mm 2 mps 689 mmHg 41%
18:00 +27°C° 0 mm 1 mps 689 mmHg 51%
19:00 +24°C° 0 mm 1 mps 689 mmHg 60%
20:00 +23°C° 0 mm 1 mps 690 mmHg 65%
21:00 +22°C° 0 mm 1 mps 690 mmHg 70%
22:00 +21°C° 0 mm 1 mps 691 mmHg 75%
23:00 +20°C° 0 mm 1 mps 691 mmHg 80%

15 July, Wednesday

Time Temperature Precipitation Wind Pressure Humidity
00:00 +19°C° 0 mm 1 mps 691 mmHg 86%
01:00 +18°C° 0 mm 1 mps 690 mmHg 91%
02:00 +18°C° 0 mm 1 mps 690 mmHg 92%
03:00 +18°C° 0 mm 1 mps 690 mmHg 94%
04:00 +16°C° 0 mm 0 mps 690 mmHg 96%
05:00 +16°C° 0 mm 0 mps 691 mmHg 93%
06:00 +17°C° 0 mm 0 mps 692 mmHg 90%
07:00 +17°C° 0 mm 0 mps 692 mmHg 88%
08:00 +20°C° 0 mm 0 mps 693 mmHg 74%
09:00 +23°C° 0 mm 0 mps 693 mmHg 60%
10:00 +27°C° 0 mm 0 mps 694 mmHg 46%
11:00 +30°C° 0 mm 1 mps 693 mmHg 40%
12:00 +32°C° 0 mm 2 mps 693 mmHg 33%
13:00 +35°C° 0 mm 2 mps 692 mmHg 26%
14:00 +35°C° 0 mm 2 mps 691 mmHg 25%
15:00 +35°C° 0 mm 2 mps 691 mmHg 24%
16:00 +35°C° 0 mm 2 mps 690 mmHg 23%
17:00 +31°C° 0 mm 1 mps 690 mmHg 32%
18:00 +27°C° 0 mm 1 mps 690 mmHg 41%
19:00 +22°C° 0 mm 0 mps 690 mmHg 49%
20:00 +21°C° 0 mm 0 mps 691 mmHg 54%
21:00 +22°C° 0 mm 1 mps 691 mmHg 60%
22:00 +21°C° 0 mm 1 mps 692 mmHg 65%
23:00 +20°C° 0 mm 1 mps 692 mmHg 74%

16 July, Thursday

Time Temperature Precipitation Wind Pressure Humidity
00:00 +19°C° 0 mm 1 mps 692 mmHg 83%
01:00 +18°C° 0 mm 1 mps 692 mmHg 92%
02:00 +18°C° 0 mm 1 mps 692 mmHg 93%
03:00 +18°C° 0 mm 1 mps 692 mmHg 95%
04:00 +16°C° 0 mm 1 mps 692 mmHg 97%
05:00 +18°C° 0 mm 1 mps 692 mmHg 95%
06:00 +18°C° 0 mm 1 mps 693 mmHg 93%
07:00 +18°C° 0 mm 1 mps 693 mmHg 91%
08:00 +22°C° 0 mm 1 mps 694 mmHg 72%
09:00 +26°C° 0 mm 1 mps 694 mmHg 53%
10:00 +30°C° 0 mm 1 mps 695 mmHg 35%
11:00 +32°C° 0 mm 2 mps 694 mmHg 28%
12:00 +35°C° 0 mm 2 mps 693 mmHg 21%
13:00 +37°C° 0 mm 2 mps 693 mmHg 14%
14:00 +37°C° 0 mm 2 mps 692 mmHg 14%
15:00 +36°C° 0 mm 2 mps 692 mmHg 14%
16:00 +36°C° 0 mm 2 mps 691 mmHg 14%
17:00 +32°C° 0 mm 2 mps 691 mmHg 21%
18:00 +28°C° 0 mm 1 mps 691 mmHg 28%
19:00 +25°C° 0 mm 1 mps 691 mmHg 35%
20:00 +23°C° 0 mm 1 mps 692 mmHg 49%
21:00 +22°C° 0 mm 1 mps 692 mmHg 63%
22:00 +20°C° 0 mm 1 mps 693 mmHg 76%
23:00 +19°C° 0 mm 1 mps 692 mmHg 83%
Show more